Главная страница
METAR-TAF:

METAR-TAF

Аэропорты :

Бекешчаба, Венгрия

широта: 46-41-00N, долгота: 021-09-45E, высота над уровнем моря: 86 м

Текущие метеонаблюдения

Эта сводка был подготовлена 55 минут назад, в 05:45 UTC
Ветер 5 Узел от северно-северо-западный
Температура 6°C
Влажность 81%
Давление 1021 hPa
Видимость 10 км и более
небольшая облачность на высоте 2000 фута
Рассеянная облачность на высоте 8300 фута

METAR: LHBC 190545Z 34005KT 9999 FEW020 BKN083 06/03 Q1021

Время: 07:40 (06:40 UTC)


TAF: отсутствует

Метеонаблюдения и прогнозы для более 4000 аэропортов (сводки METAR и TAF).

Имеющиеся станции представлены на карте желтыми и красными точками.

Чтобы увидеть название станции, наведите на нее мышь.

Затем щелкните, чтобы увидеть метеонаблюдения и метеопрогнозы.

Управление картой: чтобы увеличить масштаб, щелкните зеленые кнопки с черным крестиком; чтобы уменьшить масштаб, щелкните зеленую кнопку с тире; для просмотра соседних карт щелкайте зеленые стрелки.


METAR-TAF: